Jackson, TN

2:43 PM CST on November 15, 2019 (GMT -0600)
McKellar-Sipes Regional

Weather History for KMKL - September, 2019

Change the Weather History Date:

Monday, September 16, 2019

  Actual Average Record
Temperature  
Mean Temperature 82 °F 71 °F  
Max Temperature 98 °F 84 °F 100 °F (1980)
Min Temperature 65 °F 59 °F 44 °F (1961)
Degree Days  
Heating Degree Days 0 1  
Month to date heating degree days 0 1  
Since 1 July heating degree days 0 1  
Cooling Degree Days 16 7  
Month to date cooling degree days 225 148  
Year to date cooling degree days 1686 1571  
Growing Degree Days 32 (Base 50)    
Moisture  
Dew Point 67 °F    
Average Humidity 76    
Maximum Humidity 100    
Minimum Humidity 32    
Precipitation  
Precipitation 0.00 in 0.11 in 1.82 in (1988)
Month to date precipitation 0.00 1.63  
Year to date precipitation 46.71 37.50  
Sea Level Pressure  
Sea Level Pressure 30.07 in    
Wind  
Wind Speed 1 mph ()    
Max Wind Speed 12 mph    
Max Gust Speed 15 mph    
Visibility 6.6 miles    
Events      
T = Trace of Precipitation, MM = Missing Value Source: Averaged Metar Reports

Daily Weather History Graph

Daily Weather History Graph

Search for Another Location

Airport or City:

Astronomy

Sep. 16, 2019 Rise Set
Actual Time 6:38 AM CDT 7:01 PM CDT
Civil Twilight 6:13 AM CDT 7:27 PM CDT
Nautical Twilight 5:43 AM CDT 7:57 PM CDT
Astronomical Twilight 5:12 AM CDT 8:27 PM CDT
Moon 8:40 PM CDT (9/16) 8:42 AM CDT (9/16)
Length of Visible Light 13h 13m
Length of Day
12h 22m
Waning Gibbous, 94% of the Moon is Illuminated
Sep 16
Waning Gibbous
Sep 21
Last Quarter
Sep 28
New
Oct 5
First Quarter
Oct 13
Full

Hourly Weather History & Observations

Time (CDT) Temp. Heat Index Dew Point Humidity Pressure Visibility Wind Dir Wind Speed Gust Speed Precip Events Conditions
12:53 AM 71.1 °F - 70.0 °F 96% 30.07 in 3.0 mi Calm Calm - N/A   Clear
1:53 AM 69.1 °F - 68.0 °F 96% 30.07 in 4.0 mi Calm Calm - N/A   Clear
2:21 AM 69.1 °F - 68.0 °F 96% 30.08 in 2.5 mi SSW 3.5 mph - N/A   Clear
2:28 AM 69.1 °F - 68.0 °F 96% 30.08 in 4.0 mi Calm Calm - N/A   Clear
2:53 AM 70.0 °F - 69.1 °F 97% 30.06 in 3.0 mi Calm Calm - N/A   Clear
3:47 AM 68.0 °F - 66.2 °F 94% 30.09 in 1.8 mi Calm Calm - N/A   Clear
3:53 AM 68.0 °F - 66.9 °F 96% 30.07 in 1.0 mi Calm Calm - N/A   Clear
4:17 AM 68.0 °F - 66.9 °F 96% 30.09 in 3.0 mi Calm Calm - N/A   Clear
4:53 AM 66.9 °F - 66.0 °F 97% 30.08 in 3.0 mi Calm Calm - N/A   Clear
5:53 AM 66.9 °F - 66.0 °F 97% 30.08 in 4.0 mi Calm Calm - N/A   Clear
6:13 AM 66.9 °F - 66.0 °F 97% 30.10 in 3.0 mi Calm Calm - N/A   Clear
6:37 AM 66.0 °F - 64.0 °F 93% 30.11 in 1.5 mi Calm Calm - N/A   Clear
6:50 AM 66.2 °F - 64.4 °F 94% 30.11 in 3.0 mi Calm Calm - N/A   Clear
6:53 AM 66.9 °F - 66.0 °F 97% 30.10 in 3.0 mi Calm Calm - N/A   Clear
7:53 AM 72.0 °F - 69.1 °F 91% 30.12 in 7.0 mi Calm Calm - N/A   Clear
8:53 AM 81.0 °F 84.9 °F 71.1 °F 72% 30.12 in 10.0 mi East 3.5 mph - N/A   Clear
9:53 AM 88.0 °F 92.9 °F 70.0 °F 55% 30.12 in 10.0 mi NE 3.5 mph - N/A   Clear
10:53 AM 93.0 °F 97.9 °F 69.1 °F 45% 30.11 in 10.0 mi NNE 4.6 mph - N/A   Clear
11:53 AM 95.0 °F 99.0 °F 66.9 °F 40% 30.09 in 10.0 mi NE 6.9 mph - N/A   Clear
12:53 PM 96.1 °F 98.8 °F 64.9 °F 36% 30.08 in 10.0 mi Variable 5.8 mph - N/A   Clear
1:53 PM 98.1 °F 101.2 °F 64.9 °F 34% 30.06 in 10.0 mi NNE 8.1 mph - N/A   Clear
2:53 PM 97.0 °F 99.3 °F 64.0 °F 34% 30.03 in 10.0 mi West 5.8 mph - N/A   Clear
3:53 PM 97.0 °F 98.3 °F 63.0 °F 32% 30.02 in 10.0 mi Calm Calm - N/A   Scattered Clouds
4:53 PM 96.1 °F 96.9 °F 62.1 °F 32% 30.01 in 10.0 mi WNW 5.8 mph - N/A   Clear
5:53 PM 95.0 °F 97.4 °F 64.9 °F 37% 30.01 in 10.0 mi North 5.8 mph - N/A   Clear
6:53 PM 84.0 °F 88.4 °F 70.0 °F 63% 30.01 in 10.0 mi Calm Calm - N/A   Clear
7:53 PM 78.1 °F - 70.0 °F 76% 30.01 in 10.0 mi Calm Calm - N/A   Clear
8:53 PM 73.9 °F - 70.0 °F 87% 30.01 in 10.0 mi Calm Calm - N/A   Clear
9:53 PM 72.0 °F - 69.1 °F 91% 30.02 in 10.0 mi Calm Calm - N/A   Clear
10:53 PM 71.1 °F - 69.1 °F 93% 30.02 in 10.0 mi Calm Calm - N/A   Clear
11:53 PM 70.0 °F - 68.0 °F 93% 30.01 in 8.0 mi Calm Calm - N/A   Clear